www.pogodaiklimat.ru
ПОГОДА в Вайноне
Время
и дата
04:15 19.05
04:35 19.05
04:55 19.05
05:15 19.05
05:35 19.05
05:55 19.05
06:15 19.05
06:35 19.05
06:55 19.05
07:15 19.05
07:35 19.05
07:55 19.05
08:15 19.05
08:35 19.05
08:55 19.05
09:15 19.05
09:35 19.05
09:55 19.05
10:15 19.05
10:35 19.05
10:55 19.05
11:15 19.05
11:35 19.05
11:55 19.05
12:15 19.05
12:35 19.05
12:55 19.05
13:15 19.05
13:35 19.05
13:55 19.05
14:15 19.05
14:35 19.05
14:55 19.05
15:15 19.05
15:35 19.05
15:55 19.05
16:15 19.05
16:35 19.05
16:55 19.05
17:15 19.05
17:35 19.05
17:55 19.05
18:15 19.05
18:35 19.05
18:55 19.05
19:15 19.05
19:35 19.05
19:55 19.05
Ветер
(напр.,м/с)
Видим. Явления Облачность Т
(С)
Тd
(С)
f
(%)
Тe
(С)
Тes
(С)
Комфортность P
(гПа)
Po
(гПа)
Тmin
(С)
Tmax
(С)
R
(мм)
R24
(мм)
S
(см)
штиль 0 8 км дымка ясно +11.0 +11.0 100 +10 +10 981.0
штиль 0 2 км дымка ?/? +10.0 +10.0 100 +9 +9 980.7
штиль 0 3 км дымка ясно +10.0 +10.0 100 +9 +9 981.0
З 1 5 км дымка ясно +11.0 +11.0 100 +10 +10 980.7
штиль 0 6 км дымка ясно +11.0 +11.0 100 +10 +10 980.7
штиль 0 6 км дымка ясно +12.0 +12.0 100 +11 +11 980.7
штиль 0 8 км дымка ясно +12.0 +12.0 100 +11 +13 980.4
штиль 0 11 км ясно +13.0 +13.0 100 +12 +14 980.0
штиль 0 16 км ясно +15.0 +13.0 88 +15 +16 980.0
штиль 0 16 км ясно +15.0 +13.0 88 +15 +19 980.0
штиль 0 16 км ясно +16.0 +13.0 82 +16 +21 980.0
штиль 0 16 км ясно +17.0 +14.0 82 +17 +22 980.0
В 1 16 км ясно +17.0 +13.0 77 +17 +24 980.0
штиль 0 16 км ясно +18.0 +13.0 73 +18 +27 980.0
штиль 0 16 км ясно +18.0 +12.0 68 +18 +27 979.4
штиль 0 16 км ясно +19.0 +11.0 60 +20 +35 опасность
простуды
979.0
штиль 0 16 км ясно +20.0 +8.0 46 +21 +36 комфорт 978.7
В 1 16 км ясно +20.0 +10.0 53 +22 +33 комфорт 978.4
ЮВ 1 11 км ясно +21.0 +10.0 49 +23 +38 комфорт 978.0
В 2 16 км ясно +22.0 +11.0 50 +24 +34 комфорт 977.1
В 2 16 км ясно +22.0 +11.0 50 +24 +32 комфорт 976.4
В 2 16 км гроза ясно +22.0 +11.0 50 +24 +33 комфорт 976.1
В 2 16 км 5/0 3300 м
[Ac]
+23.0 +11.0 47 +25 +31 комфорт 975.4
ЮЗ 1 16 км 8/0 2700 м
[Ac]
+21.0 +10.0 49 +23 +31 комфорт 976.4
штиль 0 6 км гроза с дождем 10/8 390 м
[Ac]
+16.0 +13.0 82 +16 +18 976.7
ЮВ 1 8 км дождь 10/10 870 м +16.0 +14.0 88 +16 +16 975.4
В 1 11 км слабый дождь 10/8 900 м
[Ac]
+16.0 +14.0 88 +16 +18 975.7
СВ 1 16 км слабый дождь 10/5 1140 м
[Ac]
+16.0 +13.0 82 +16 +21 975.7
ЮВ 2 16 км 8/5 1260 м
[Ac]
+15.0 +14.0 94 +14 +18 973.7
СВ 1 16 км 8/5 1500 м
[Ac]
+16.0 +15.0 94 +16 +22 974.4
ЮВ 1 16 км 5/0 3300 м
[Ac]
+17.0 +15.0 88 +17 +25 973.4
В 2 16 км ясно +17.0 +15.0 88 +17 +27 972.4
ЮВ 2 16 км ясно +17.0 +16.0 94 +16 +24 971.4
ЮВ 3
{4}
16 км ясно +18.0 +16.0 88 +17 +21 970.1
ЮВ 3
{4}
16 км ясно +18.0 +15.0 83 +17 +22 969.1
ЮВ 2 16 км ясно +18.0 +16.0 88 +18 +24 968.5
ЮВ 2 16 км ясно +18.0 +16.0 88 +18 +22 968.1
ЮВ 3 16 км ясно +18.0 +16.0 88 +17 +19 967.1
ЮВ 3 16 км ясно +18.0 +16.0 88 +17 +21 966.8
СВ 2 16 км 8/0 3300 м
[Ac]
+18.0 +16.0 88 +18 +19 967.5
С 1 16 км 10/5 900 м
[Ac]
+18.0 +16.0 88 +19 +20 967.8
СЗ 3 16 км гроза со слабым дождем 10/0 2700 м
[Ac]
+18.0 +16.0 88 +17 +18 968.1
СЗ 4
{6}
11 км гроза с сильным дождем 10/5 600 м
[Ac]
+18.0 +17.0 94 +17 +17 970.4
Ю 1 11 км 8/5 330 м
[Ac]
+17.0 +17.0 100 +17 +17 968.1
штиль 0 8 км гроза с дождем 8/5 990 м
[Ac]
+17.0 +17.0 100 +17 +18 968.5
ЮВ 2 11 км гроза с дождем 8/5 1170 м
[Ac]
+17.0 +17.0 100 +16 +16 968.1
ЮЗ 2
{4}
3 км гроза с сильным дождем 10/10 450 м +18.0 +17.0 94 +18 +18 967.1
ЮЗ 3
{5}
2 км 10/10 150 м +17.0 +16.0 94 +16 +16 967.1
Местоположение метеостанции Winona Municipal Airport: широта 44.0833 долгота -91.7000 высота над уровнем моря 200 м.
В архиве по умолчанию представлена погода в Вайноне за последние 1-2 суток. Обновление информации о фактической погоде в базе происходит ежечасно! Архивные данные за месяц целиком и за предыдущие месяцы Вы можете получить, выбрав интересующий диапазон дат из раскрывающегося списка и нажав кнопку "Ввод!".
Внимание! Архив погоды МЕТАР в базе сайта по станциям, не включенным в климатический монитор, хранится не более 60 дней. Нет смысла пытаться выбрать более раннюю дату.
*Определитесь, кто Вы:
Внимание! Время в таблицах - местное (без учета летнего времени). Для получения всемирного времени необходимо вычесть поправку, которая равна -6 ч.
Смотрите также архив погоды в соседних городах и на ближайших метеорологических станциях:
Партнеры нашего сайта:      
Пояснения к столбцам:
  • Ветер - указаны скорость ветра в м/с - средняя за 10 мин, порывы в срок и между сроками (в фигурных скобках) и направление, откуда дует ветер: С - северный,
  • СВ - северо-восточный, В - восточный, ЮВ - юго-восточный, Ю - южный, ЮЗ - юго-западный, З - западный, СЗ - северо-западный.
  • Видимость - горизонтальная дальность видимости в метрах или километрах. При видимости от 1 до 10 км при отсутствии осадков обычно наблюдается дымка, при ухудшении видимости до 1 км и менее - туман. В сухую погоду видимость может ухудшаться дымом, пылью или мглою.
  • Явления - указаны атмосферные явления, наблюдавшиеся в срок или в последний час перед сроком; фигурными скобками обозначены явления, наблюдавшиеся между сроками (за 1-3 часа до срока); квадратными скобками обозначены град или гололедные отложения с указанием их диаметра в мм.
  • Облачность - указаны через наклонную черту общая и нижняя облачность в баллах и высота нижней границы облаков в метрах; квадратными скобками обозначены формы облаков: Ci - перистые, Cs - перисто-слоистые, Cc - перисто-кучевые, Ac - высококучевые, As - высокослоистые, Sc - слоисто-кучевые, Ns - слоисто-дождевые, Cu - кучевые, Cb - кучево-дождевые. Подробнее классификацию облаков см. в Атласе облаков (PDF).
  • T - Температура воздуха - температура, измеренная на высоте 2 м над землей.
  • Td - Температура точки росы - температура, при понижении до которой содержащийся в воздухе водяной пар достигнет насыщения.
  • f - Относительная влажность воздуха - влажноcть воздуха, измеренная на высоте 2 м над землей.
  • Te - Эффективная температура - температура, которую ощущает одетый по сезону человек в тени. Характеристика душности погоды. При расчете учитывается влияние влажности воздуха и скорости ветра на теплоощущения человека.
  • Tes - Эффективная температура на солнце - температура, которую ощущает человек, с поправкой на солнечный нагрев. Характеристика знойности погоды. Зависит от высоты солнца над горизонтом, облачности и скорости ветра. Ночью, в пасмурную погоду, а также при ветре 12 м/с и более поправка равна нулю.
  • P - Атмосферное давление - приведенное к уровню моря атмосферное давление.
  • Po - Атмосферное давление - измеренное на уровне метеостанции атмосферное давление.
  • Tmin - Минимальная температура - минимум температуры воздуха на высоте 2 м над землей.
  • Tmax - Максимальная температура - максимум температуры воздуха на высоте 2 м над землей.
  • R - Количество осадков - Количество выпавших осадков за период времени, мм. При наведении курсора мыши на число - период времени, за который выпало указанное количество осадков.
  • R24 - Количество осадков - Количество выпавших осадков за 24 часа, мм.
  • S - Снежный покров - Высота снежного покрова, см. При наведении курсора мыши на число - состояние снежного покрова и степень покрытия местности в баллах.